Location: Madrid
(40.4000°N, 3.6830°W)
Time: 22:53:25
(UTC+02:00)

ISS - Pass Details

Date: 22 July 2017
Orbit: 400 x 408 km, 51.6° (Epoch: 24 July)

Event Time Altitude Azimuth Distance (km) Brightness Sun altitude
Rises 05:54:26 0° 309° (NW) 2,316 -0.1 -11.7°
Reaches altitude 10° 05:56:33 10° 314° (NW) 1,456 -1.1 -11.4°
Maximum altitude 05:59:45 55° 34° (NNE) 488 -3.0 -10.9°
Drops below altitude 10° 06:02:58 10° 113° (ESE) 1,453 -0.6 -10.4°
Sets 06:05:04 0° 118° (ESE) 2,311 0.4 -10.1°
